Overview Statistics Trail Chart Weather Telemetry Raw packets
 

This is the latest recevied weather packets stored in our database for station/object N6GPM. If no packets are shown the sender has not sent any weather packets the latest 10 day(s).

<< 33 34 35 36 37 38 39 >>
Time Temp. Humidity Pressure Rain* Wind** Luminosity Snow
1788452343 19.44° C 59% 1018.6 hPa 0 mm - 547 W/m² -
1788452038 19.44° C 60% 1019 hPa 0 mm - 531 W/m² -
1788451735 19.44° C 61% 1018.7 hPa 0 mm - 511 W/m² -
1788451433 19.44° C 61% 1018.9 hPa 0 mm - 492 W/m² -
1788451132 18.89° C 62% 1018.8 hPa 0 mm - 491 W/m² -
1788450827 18.89° C 63% 1018.7 hPa 0 mm - 450 W/m² -
1788450523 18.89° C 64% 1019 hPa 0 mm - 79 W/m² -
1788450233 18.89° C 63% 1019 hPa 0 mm - 389 W/m² -
1788449913 18.89° C 65% 1018.9 hPa 0 mm - 385 W/m² -
1788449609 18.33° C 66% 1018.8 hPa 0 mm - 361 W/m² -
1788449306 18.33° C 65% 1018.9 hPa 0 mm - 342 W/m² -
1788449001 18.33° C 67% 1018.8 hPa 0 mm - 62 W/m² -
1788448695 17.78° C 71% 1018.9 hPa 0 mm - 300 W/m² -
1788448386 17.78° C 71% 1018.9 hPa 0 mm - 75 W/m² -
1788448086 17.22° C 72% 1019 hPa 0 mm - 260 W/m² -
1788447781 17.22° C 71% 1018.8 hPa 0 mm - 239 W/m² -
1788447475 17.22° C 72% 1018.7 hPa 0 mm - 217 W/m² -
1788447171 17.22° C 73% 1018.6 hPa 0 mm - 197 W/m² -
1788446869 17.22° C 73% 1018.8 hPa 0 mm - 179 W/m² -
1788446565 17.22° C 75% 1019 hPa 0 mm - 160 W/m² -
1788446261 16.67° C 76% 1018.8 hPa 0 mm - 140 W/m² -
1788445957 16.67° C 76% 1018.8 hPa 0 mm - 123 W/m² -
1788445653 16.67° C 78% 1018.5 hPa 0 mm - 108 W/m² -
1788445349 16.67° C 77% 1018.4 hPa 0 mm - 93 W/m² -
1788445044 16.11° C 78% 1018.4 hPa 0 mm - 80 W/m² -

* Rain latest hour (hover to see other rain measurements)
** Current wind speed in m/s (hover to see current wind gust speed)